GFSNE_850_rhum_057.txt.gz
RH
100 99 96 80 81 87 98 94 90 100 98 94 88 89 84 89 96 98 95 88 84 82 83 88 99 100 100 97 100 99 100 100 100 100 97 99 99 98
98 94 97 88 89 92 99 96 97 96 100 100 96 88 87 90 88 88 92 86 84 88 88 88 100 100 98 99 100 99 100 98 97 98 98 98 99 98
77 79 82 93 98 98 98 98 98 96 97 91 92 86 88 86 81 87 90 87 87 88 98 100 100 100 100 99 99 99 99 97 98 99 99 99 99 98
73 74 65 68 84 92 97 100 96 93 95 91 92 89 92 86 81 86 88 89 96 96 100 100 100 100 100 98 94 95 98 98 99 100 99 99 99 99
73 73 77 81 84 87 88 89 94 94 91 88 91 92 87 86 92 88 85 88 88 91 97 98 96 91 97 96 99 100 100 99 100 100 97 98 99 99
81 82 82 84 86 86 86 87 86 87 88 90 89 89 90 92 92 91 93 92 90 91 93 92 92 93 95 95 99 99 99 100 99 98 98 99 94 59
80 78 76 76 79 81 82 83 82 83 89 94 99 99 98 95 93 91 90 90 90 90 90 90 90 92 96 98 97 99 99 99 92 78 53 39 32 54
71 68 67 67 67 66 63 55 52 61 73 79 81 82 82 85 83 78 69 61 55 46 46 41 36 36 38 35 32 28 28 27 27 25 20 18 23 51
17 13 13 12 9 10 9 9 10 9 9 12 15 18 20 22 23 26 28 29 32 31 24 17 17 16 18 16 14 15 16 16 17 19 27 40 60 90
7 8 8 8 9 9 10 11 12 13 16 15 17 21 23 26 32 33 34 33 29 23 21 18 21 31 41 40 39 38 39 39 44 48 59 92 100 100
10 11 11 11 11 11 12 14 15 16 18 18 18 19 22 25 24 29 30 26 23 25 36 50 50 48 48 49 50 50 50 51 54 58 66 67 73 74
12 13 15 14 14 13 14 16 16 18 20 22 20 19 18 19 20 21 24 28 30 49 57 60 58 60 60 58 59 58 57 57 57 58 59 60 66 65
13 14 15 17 17 18 15 18 16 17 18 18 18 18 19 21 23 24 30 43 53 61 63 68 68 69 74 68 55 58 59 60 60 57 59 64 67 64
15 15 15 15 17 19 21 21 19 20 20 20 20 21 23 25 34 44 52 56 59 62 69 68 70 75 81 74 65 64 64 65 66 64 61 60 64 65
15 15 15 17 19 22 22 21 22 22 21 20 22 25 32 41 49 54 57 58 59 62 68 74 76 78 81 81 73 70 67 63 65 65 70 70 69 65
15 17 19 19 20 20 22 22 23 22 20 21 22 24 30 39 48 56 58 58 58 65 73 78 76 75 73 73 71 64 68 72 69 71 71 66 65 66
12 17 20 20 19 19 20 21 22 22 21 21 21 23 27 35 42 48 53 54 55 56 61 68 67 64 63 64 64 64 67 72 72 71 74 69 66 67
14 19 21 20 18 18 20 20 22 22 21 22 23 23 25 28 31 35 40 43 45 47 49 51 52 55 58 61 70 71 72 72 75 75 73 71 61 58
16 19 18 17 18 18 20 20 21 21 21 23 24 26 26 28 29 31 34 36 38 41 43 46 51 63 83 92 79 79 75 74 77 75 75 73 70 61
18 18 17 16 17 17 18 19 20 21 22 23 24 27 28 29 31 33 35 38 41 44 47 57 75 95 98 100 100 78 77 81 80 80 76 76 73 65
21 20 19 18 17 18 19 20 21 22 24 26 28 30 34 37 38 41 45 49 58 69 80 84 91 98 96 97 92 81 79 78 80 81 80 82 77 70
22 24 24 24 24 25 27 31 36 40 43 46 49 55 62 68 71 75 80 88 93 98 97 93 92 95 96 94 89 86 84 80 75 73 76 78 79 92
22 27 29 31 35 42 53 63 68 72 75 78 81 84 89 92 95 96 97 99 98 95 95 93 92 91 85 85 85 84 82 79 78 71 69 68 68 69

GFSNE_850_rhum_060.txt.gz
RH
96 92 94 99 100 100 99 92 93 99 99 88 88 85 85 84 81 88 92 88 87 84 81 79 76 80 90 100 99 100 100 99 100 99 98 98 96 93
97 96 99 99 100 99 100 99 92 98 99 93 94 95 90 85 83 87 81 86 89 82 82 81 81 87 91 99 100 98 98 93 97 97 97 98 98 97
96 91 97 94 92 97 98 95 97 97 94 99 98 90 88 86 88 85 79 86 90 87 86 93 98 99 100 99 99 100 99 98 97 96 98 98 90 96
71 76 77 75 67 71 85 96 94 98 94 91 88 90 92 86 83 83 83 82 82 87 90 100 100 99 100 100 99 98 94 97 98 100 93 87 98 100
69 68 67 68 71 75 80 86 87 88 89 91 91 92 90 85 85 86 86 84 81 82 84 88 94 98 98 95 97 94 91 82 84 82 90 90 97 98
74 75 78 77 78 81 84 85 85 86 87 92 96 94 91 89 89 87 88 89 87 86 85 86 87 88 90 86 86 85 86 91 96 98 99 98 97 94
78 76 74 69 68 74 74 77 78 76 80 88 97 96 95 91 89 85 84 81 76 77 79 81 82 82 84 86 88 89 89 90 92 94 95 97 96 91
71 65 55 41 37 26 24 30 27 31 46 57 64 74 68 61 45 36 26 22 44 21 18 17 15 15 15 15 19 25 32 41 48 52 47 36 28 25
26 16 10 10 7 8 8 8 8 8 8 10 13 17 22 20 21 23 26 26 36 30 17 15 16 14 13 12 11 11 12 12 14 15 17 18 20 26
6 6 8 8 10 9 10 11 13 13 13 13 15 18 20 21 24 28 28 24 24 35 16 27 36 39 39 38 34 33 33 33 32 34 38 43 80 100
8 9 10 10 10 12 11 14 16 16 16 16 16 16 16 17 18 22 26 27 41 48 31 43 53 45 47 49 48 47 47 46 46 47 51 77 91 100
11 12 11 12 11 10 13 16 17 19 21 21 19 19 18 17 17 19 20 23 28 54 46 50 50 52 59 62 53 53 53 51 52 53 54 52 53 57
13 13 13 12 12 11 12 15 19 19 20 19 18 18 18 18 19 22 28 39 47 53 53 57 56 58 65 63 54 57 58 60 61 58 53 52 55 59
14 13 13 12 13 12 14 16 17 18 20 20 20 20 20 21 27 37 44 49 53 56 59 58 61 66 71 67 66 66 63 62 63 65 65 62 59 57
14 13 11 12 14 17 18 18 18 19 20 20 20 20 22 27 36 42 46 50 54 56 60 64 66 70 73 70 65 64 62 61 63 65 69 67 65 66
15 14 14 14 16 17 18 19 19 19 20 20 20 20 21 26 34 41 47 51 51 53 58 65 70 70 67 63 60 56 58 62 62 67 70 66 65 66
13 14 18 17 17 16 18 19 19 19 19 19 19 20 21 23 27 32 36 40 44 48 67 71 63 62 57 54 54 54 56 64 71 71 73 69 65 64
15 18 20 18 18 18 18 18 18 18 18 18 19 20 22 23 25 27 29 32 36 38 42 49 55 53 50 51 56 61 71 74 76 76 76 76 68 65
18 22 21 18 17 18 18 18 18 18 19 20 21 22 24 25 27 29 31 33 34 36 38 42 46 54 64 83 77 80 80 76 79 79 78 76 76 68
19 22 21 19 18 18 18 19 19 20 21 22 23 25 27 29 31 33 35 37 39 41 44 49 58 74 94 94 100 82 89 84 80 82 81 78 75 71
18 20 22 22 21 20 21 22 23 24 26 28 30 34 37 41 45 50 56 60 66 70 74 79 90 98 99 99 97 82 79 79 80 80 79 83 79 70
16 18 23 25 26 27 28 31 37 46 56 64 67 69 72 77 81 84 86 88 90 92 90 86 87 90 91 92 92 88 78 72 74 78 80 77 75 84
17 18 22 27 30 33 38 47 57 64 71 76 80 84 86 87 89 86 85 87 89 88 90 86 86 83 81 84 90 92 85 79 74 71 71 69 69 68

GFSNE_850_rhum_063.txt.gz
RH
90 99 99 99 91 97 100 99 100 99 100 96 94 88 88 91 88 84 83 83 83 82 77 76 78 78 75 72 75 91 98 94 77 87 97 99 100 100
99 99 100 100 98 92 96 100 98 100 99 98 89 89 93 92 84 86 82 84 79 85 84 80 80 80 83 84 92 99 97 91 100 100 100 99 96 94
100 98 98 99 98 98 98 99 99 96 94 92 94 94 93 92 89 86 83 81 80 87 85 89 99 99 99 100 100 98 100 100 99 98 98 98 99 97
83 84 85 90 84 79 78 82 90 90 90 99 96 89 90 88 86 83 79 80 80 83 86 86 100 98 100 100 100 99 100 98 94 90 86 82 82 88
76 75 76 75 70 71 77 80 80 82 83 87 87 89 89 85 84 80 81 83 84 85 83 83 88 96 93 93 94 97 94 86 87 88 84 78 82 87
77 76 74 74 76 78 79 82 83 83 83 86 93 97 91 86 83 81 84 83 84 85 85 85 84 86 86 85 87 85 83 83 84 81 80 81 81 82
80 80 80 76 73 78 74 76 78 80 79 85 98 98 91 80 73 75 74 67 67 46 59 72 77 80 79 79 82 82 83 84 84 86 92 93 90 88
78 72 63 43 33 28 22 30 32 26 32 48 63 93 92 68 57 34 26 18 34 35 22 14 12 12 13 13 12 14 16 26 43 58 69 77 82 79
58 32 16 11 6 7 6 6 6 6 7 9 19 27 32 27 24 25 28 26 34 35 17 11 15 12 11 12 10 10 10 10 10 11 12 14 15 16
11 8 7 8 9 8 7 8 8 8 9 12 13 12 14 17 21 21 22 19 22 52 25 17 28 30 32 33 31 30 30 29 29 28 24 24 24 25
8 9 10 10 10 9 9 10 11 12 12 12 12 11 12 12 15 17 16 20 22 51 30 37 42 37 38 41 40 41 43 43 42 40 40 40 39 59
10 11 11 10 9 9 10 13 14 19 17 15 14 13 13 13 13 14 17 18 22 41 53 46 43 44 43 58 46 46 47 48 48 48 47 48 50 47
12 13 12 11 9 8 11 14 16 20 15 15 16 15 14 14 14 17 21 28 37 42 42 48 45 48 50 48 44 52 53 56 56 55 55 54 52 50
13 13 12 11 9 11 13 14 15 15 16 16 16 18 18 17 17 23 32 39 42 45 49 47 50 53 56 53 50 57 57 56 57 55 59 59 59 61
14 14 10 10 11 13 15 17 15 16 15 17 17 16 16 17 21 27 33 37 42 46 49 52 53 56 59 57 53 49 53 51 56 58 63 62 62 63
15 16 13 12 13 14 15 16 16 17 16 17 17 18 17 18 21 27 32 38 39 42 43 49 54 58 58 58 57 47 49 54 53 56 65 67 64 64
15 15 15 18 18 16 16 16 16 17 17 18 18 18 19 21 22 24 26 29 32 34 42 50 48 49 49 47 46 46 48 52 58 65 73 71 64 64
14 16 19 22 20 20 18 17 17 17 18 18 18 19 21 22 23 24 25 27 28 31 37 46 64 63 51 44 48 50 59 68 72 76 78 82 70 64
13 18 19 24 22 19 18 18 18 18 18 18 19 20 22 23 25 25 27 29 30 33 36 42 51 64 74 60 58 78 81 81 84 79 79 81 81 71
16 17 20 23 22 21 20 18 19 19 20 21 22 23 24 27 29 31 34 37 42 47 51 55 61 69 80 87 98 83 90 86 84 83 80 78 76 74
21 20 18 21 22 24 23 22 22 23 25 29 34 38 43 46 50 54 61 68 76 79 76 76 84 99 100 100 99 81 73 70 70 73 72 77 71 71
24 24 21 19 20 25 27 28 28 31 41 52 61 69 73 75 75 77 79 78 78 81 81 78 79 87 87 89 82 74 68 68 71 74 79 84 89 100
68 91 52 20 19 23 28 32 35 42 57 63 67 72 76 78 80 81 79 76 74 72 74 74 78 86 83 92 96 96 84 74 76 74 67 67 71 73

GFSNE_850_rhum_069.txt.gz
RH
53 68 68 92 98 98 98 99 100 100 85 98 100 100 100 93 93 96 99 97 91 83 79 77 81 92 94 85 92 77 69 67 68 75 94 94 99 90
54 62 78 97 92 94 92 92 96 99 100 100 100 100 91 86 97 98 96 88 84 81 79 84 84 96 99 99 100 98 98 98 98 97 96 87 86 95
57 68 94 99 93 94 99 98 100 99 100 98 99 98 94 100 100 96 90 83 79 80 79 81 93 99 98 98 99 95 95 93 98 97 92 95 94 100
60 66 92 99 98 98 98 100 100 100 100 100 100 100 100 99 98 94 86 85 78 81 81 79 84 86 94 98 96 97 96 97 100 100 100 99 99 97
76 76 80 82 84 88 87 82 74 82 88 91 97 99 99 98 91 88 87 84 79 80 84 80 82 82 80 89 93 88 87 84 82 83 94 88 85 86
88 88 88 88 90 87 84 80 78 79 81 85 89 96 96 93 88 86 83 83 80 77 74 69 70 74 80 80 84 84 83 84 85 85 85 85 83 85
90 90 90 86 79 78 78 79 79 79 79 79 81 88 80 63 50 59 65 59 49 34 26 20 17 18 20 26 48 70 75 78 80 81 80 79 79 80
91 94 92 89 85 78 78 76 70 63 60 58 68 50 36 40 39 31 18 16 14 13 15 19 14 12 12 11 10 8 7 7 8 9 11 12 16 21
98 99 92 80 44 19 10 8 6 6 5 9 15 23 22 24 29 17 13 12 13 13 11 12 10 11 14 16 17 21 19 17 15 14 12 10 9 10
94 87 57 23 9 10 9 9 9 10 10 11 12 14 14 16 19 14 14 14 14 12 15 14 15 22 27 28 30 31 29 31 32 32 30 29 27 26
58 25 11 11 12 13 11 10 10 12 14 11 10 10 10 11 10 10 11 11 12 13 22 25 26 28 30 32 35 36 35 37 38 39 39 38 38 37
10 10 12 12 12 12 10 10 12 14 15 14 14 13 12 12 10 10 11 12 13 17 30 35 31 32 36 36 41 38 39 41 43 45 47 48 48 46
12 14 15 15 14 12 9 9 11 12 13 13 13 12 13 12 12 12 14 16 21 28 30 36 36 38 38 37 37 39 40 46 48 49 49 50 51 52
15 15 16 16 14 11 9 10 10 11 12 12 13 14 13 12 12 14 16 20 26 32 35 39 39 40 40 36 36 39 43 46 44 42 44 48 53 54
12 14 15 14 12 11 12 12 12 13 13 14 15 15 13 12 12 14 16 20 25 30 36 41 43 41 39 39 39 36 35 39 41 47 51 50 48 50
12 13 15 16 15 14 14 16 15 14 13 14 16 16 16 16 16 15 15 17 19 27 30 31 33 33 35 36 36 35 37 40 42 44 46 45 48 52
17 17 15 16 17 17 20 19 18 16 14 15 15 16 16 16 16 17 18 19 20 21 24 27 28 31 33 34 34 36 39 42 44 50 57 58 56 61
16 14 12 13 15 18 20 22 20 17 16 16 16 17 17 17 18 19 20 20 21 23 26 29 32 34 37 40 44 44 47 51 57 62 67 74 60 52
18 17 15 14 15 18 20 21 20 21 18 17 17 18 18 19 20 22 23 24 26 28 31 35 40 45 51 58 54 60 52 55 62 63 68 70 66 44
18 17 18 18 20 20 19 19 22 21 22 21 20 20 22 24 27 31 34 41 46 51 55 60 68 76 82 81 78 53 66 66 66 65 59 57 59 61
22 20 25 23 24 24 24 54 41 20 24 25 25 25 28 36 50 60 70 75 76 75 74 75 82 80 81 94 79 47 40 54 60 65 72 75 66 60
29 32 30 38 58 64 91 95 56 21 28 49 30 34 40 55 68 91 86 76 80 84 82 79 78 77 80 87 79 67 48 51 68 74 74 80 82 87
94 96 95 89 91 96 62 84 98 76 79 80 53 86 50 89 96 96 93 75 79 80 81 81 85 87 82 82 86 77 70 77 75 70 61 70 74 76

GFSNE_850_rhum_072.txt.gz
RH
48 50 51 60 74 74 98 96 96 99 88 97 100 96 96 100 100 91 89 97 98 90 83 79 74 86 99 97 100 99 85 72 69 65 68 82 99 96
51 54 63 76 82 89 96 93 98 99 100 100 98 99 100 100 100 90 91 98 97 85 81 78 78 95 99 98 99 100 99 98 95 95 96 100 99 99
58 59 65 75 93 99 92 96 100 89 97 100 99 100 100 100 96 98 99 87 84 80 83 82 85 100 98 99 99 99 98 94 92 99 97 100 99 96
67 69 71 83 100 99 97 97 99 100 100 98 100 100 99 98 98 100 86 84 82 76 81 83 88 95 97 99 99 98 94 93 91 92 78 79 80 85
73 77 79 87 96 100 100 99 100 100 100 100 99 100 98 99 98 91 88 86 83 77 76 78 82 87 87 90 94 94 93 88 85 82 85 91 98 94
86 88 90 89 92 98 99 100 93 82 82 99 100 100 100 99 89 86 85 85 81 82 81 75 71 73 76 82 84 92 88 86 84 84 81 78 78 80
89 93 96 97 92 90 89 87 86 86 86 89 95 97 99 88 68 68 79 75 72 58 51 33 23 19 18 29 49 69 78 83 85 86 87 88 86 83
96 98 97 96 92 90 86 83 84 82 79 78 81 80 68 43 37 39 32 28 20 16 23 22 18 14 12 13 12 10 9 8 10 16 24 30 36 44
99 100 100 98 88 66 38 26 21 20 19 18 22 34 30 33 35 27 21 18 16 15 16 14 13 13 15 15 16 21 19 17 14 12 12 10 8 8
99 100 99 86 52 16 11 8 10 10 10 9 10 16 18 22 23 20 16 16 16 16 14 15 14 19 23 28 28 30 26 28 29 30 30 28 26 25
100 96 78 28 11 12 12 12 13 11 12 11 10 10 12 12 13 13 12 12 11 12 16 19 23 27 29 31 33 32 31 32 35 36 36 35 35 34
83 44 13 11 14 14 12 11 12 13 13 16 16 15 13 13 12 11 11 11 10 11 16 26 30 31 33 35 39 37 36 37 40 41 42 43 43 42
14 12 14 14 14 13 11 10 13 13 15 16 15 14 14 14 14 13 14 14 14 19 27 30 30 34 36 37 37 36 37 39 45 46 45 44 43 43
13 15 17 16 15 13 10 10 10 11 13 13 14 14 15 16 17 16 16 18 21 26 30 32 34 36 38 36 37 37 39 43 43 43 41 42 42 42
14 18 18 18 16 12 11 12 13 14 14 14 15 15 15 16 15 16 16 18 21 25 29 32 36 36 36 35 36 35 35 42 41 39 43 49 49 49
12 14 15 16 18 18 16 16 16 17 16 15 15 15 15 17 18 17 16 18 18 20 23 28 29 28 28 29 31 31 34 36 42 42 40 39 40 44
18 18 18 18 18 20 20 22 21 19 16 15 14 15 16 16 17 18 18 19 19 22 26 27 25 26 28 30 30 31 35 37 42 45 46 42 43 52
23 19 19 19 16 18 20 23 23 21 18 16 15 14 15 16 15 17 19 19 20 22 24 26 28 29 31 33 38 41 42 43 51 52 60 64 44 46
22 19 19 18 15 16 18 20 22 23 21 20 22 19 17 17 16 18 20 22 23 26 28 30 33 38 44 52 53 55 48 47 50 53 60 61 53 34
22 20 19 19 19 18 20 20 21 24 22 23 22 22 20 20 21 23 28 32 39 48 54 58 62 68 74 77 74 56 57 53 55 49 46 51 47 40
24 23 22 22 22 26 27 25 22 27 72 68 24 25 33 25 25 32 46 57 66 72 71 71 83 86 85 86 70 53 55 62 60 55 51 63 64 57
30 31 42 63 79 72 56 39 38 72 96 76 27 41 52 33 33 54 78 89 96 95 84 80 83 87 90 91 83 72 59 54 57 69 75 80 81 85
79 96 95 84 87 97 92 88 95 90 86 95 83 54 92 66 73 91 94 96 96 96 95 94 93 90 90 97 97 85 70 51 55 65 63 72 74 75

GFSNE_850_rhum_078.txt.gz
RH
43 47 51 52 54 58 68 70 100 100 95 96 85 90 99 100 100 100 99 100 100 95 91 89 82 71 95 99 98 98 99 97 93 82 74 80 79 83
46 50 53 57 62 66 70 82 84 98 100 99 94 87 96 100 100 100 100 100 99 98 96 85 73 72 72 96 97 97 97 98 100 89 81 60 76 92
53 57 59 60 63 67 76 84 89 97 96 96 92 99 94 100 99 100 100 100 99 99 83 83 78 77 71 99 98 97 98 98 99 99 98 93 86 96
55 58 63 69 71 74 78 93 97 92 95 100 100 100 100 100 100 100 100 100 100 92 79 81 79 80 76 92 99 98 97 98 97 98 95 95 97 99
57 60 65 72 79 86 93 98 98 98 96 94 96 98 100 100 100 100 99 98 98 91 88 83 76 76 78 84 88 97 96 90 92 93 93 90 96 99
63 68 76 83 96 99 100 99 97 99 98 99 99 99 100 100 100 100 98 100 88 90 88 82 73 73 76 77 86 92 93 90 91 85 89 83 78 83
65 76 87 95 100 100 100 100 98 98 98 98 97 97 99 100 99 98 99 99 90 91 86 77 68 57 47 42 57 68 77 89 93 91 90 88 86 83
72 99 100 100 99 99 100 99 99 100 100 100 98 96 99 99 97 100 99 69 82 74 68 51 30 21 18 17 16 14 13 25 58 79 88 87 86 84
98 98 99 99 99 99 100 91 64 76 92 100 99 100 100 100 85 79 55 49 40 28 20 16 17 16 14 14 12 11 11 8 8 8 10 26 44 54
98 99 99 97 99 99 90 50 21 14 13 15 27 44 45 76 40 44 51 38 27 23 20 16 14 15 15 16 17 18 22 20 19 18 17 14 12 10
99 99 99 98 99 98 52 18 16 17 17 15 14 16 18 32 29 26 28 24 20 17 17 18 18 16 18 24 26 26 28 26 27 29 30 29 27 27
99 99 98 100 100 47 18 18 17 17 18 20 17 16 15 13 12 12 12 13 12 11 12 19 21 25 29 29 30 32 31 30 31 33 34 36 36 34
91 100 100 88 34 17 16 17 17 16 18 18 18 20 18 16 13 13 12 12 10 10 14 20 25 30 31 32 33 35 36 34 32 32 34 37 39 37
79 66 42 19 20 19 17 17 14 13 14 17 19 19 16 14 13 14 15 14 13 13 15 19 23 27 30 30 35 33 34 33 33 33 35 38 37 34
52 25 18 18 22 22 18 16 12 14 16 19 19 17 16 15 15 14 13 12 13 14 16 19 22 25 27 30 34 35 35 34 35 34 35 36 36 35
42 17 17 20 23 25 23 18 17 18 21 22 19 18 16 15 15 14 15 15 16 20 19 17 18 21 25 27 26 26 27 29 31 34 33 32 34 35
48 23 16 15 19 19 18 21 21 22 22 23 20 18 17 16 16 17 18 20 20 19 18 18 19 21 22 22 22 24 26 28 32 34 33 31 33 36
56 31 18 15 18 19 20 21 23 24 25 26 23 19 17 16 16 17 20 19 20 20 20 20 20 22 23 26 35 42 39 41 50 50 48 44 37 43
69 32 26 20 22 26 24 23 20 22 25 27 26 22 20 19 24 25 22 21 25 21 22 24 26 27 29 37 57 64 68 67 69 68 64 57 41 35
83 36 24 22 22 22 22 22 20 19 21 23 24 24 24 25 27 35 33 23 23 24 25 27 31 41 59 88 90 79 78 87 85 81 73 71 57 44
96 35 23 23 22 22 22 22 23 22 22 24 23 24 24 44 80 91 53 29 36 41 29 34 54 84 97 97 90 81 84 92 96 96 92 86 72 55
98 84 29 26 25 25 27 27 26 25 31 45 59 55 54 54 85 84 39 39 58 67 38 54 92 99 95 94 92 91 88 93 97 97 97 95 80 62
99 88 35 27 28 29 33 32 32 40 69 92 91 78 82 92 96 86 50 51 77 95 78 91 98 98 97 97 96 90 87 90 96 90 82 81 70 68

GFSNE_850_rhum_081.txt.gz
RH
47 45 42 44 47 50 56 69 87 99 96 95 88 90 86 94 100 100 100 98 100 100 99 98 88 75 70 92 97 96 97 98 97 88 77 74 72 72
51 46 47 48 50 53 57 68 77 99 99 98 94 94 89 89 98 100 100 100 100 99 99 99 93 76 74 74 93 95 91 93 96 97 92 79 76 70
48 49 50 52 52 56 62 68 78 95 100 99 99 87 86 99 96 100 100 100 100 100 99 98 76 82 81 73 85 95 95 97 97 98 99 99 77 80
51 53 54 55 56 61 67 75 81 100 100 100 96 94 99 100 100 100 100 100 100 100 99 96 83 87 83 82 89 98 96 95 97 96 97 98 99 100
55 54 54 54 59 66 79 88 98 97 97 96 93 92 90 97 100 100 100 100 100 99 98 89 89 87 84 80 86 94 95 96 94 95 94 98 98 99
54 51 52 58 65 75 96 99 98 99 99 99 98 97 96 96 97 100 100 100 100 99 94 92 90 85 83 83 87 89 89 94 90 91 89 90 99 92
50 49 51 61 84 99 100 99 99 99 98 100 100 99 99 99 99 100 99 100 98 99 92 92 87 81 74 68 72 74 78 85 86 86 86 86 85 82
52 49 56 86 97 99 99 99 100 99 97 99 99 99 99 99 100 99 100 99 99 73 82 83 77 63 42 27 20 17 18 38 67 85 90 88 87 84
56 54 76 95 98 98 98 99 100 92 94 100 99 99 99 99 99 99 98 95 67 54 32 20 19 19 19 20 16 14 12 10 10 12 41 72 85 87
64 86 99 99 99 99 99 98 67 40 20 20 43 67 86 79 76 75 60 50 49 35 24 21 16 14 15 16 16 15 16 18 16 14 11 9 9 13
81 96 99 99 99 98 100 88 42 18 15 14 14 15 18 29 39 40 38 32 34 21 18 16 15 15 15 17 18 22 24 28 26 25 26 26 22 21
87 100 100 99 99 100 92 31 17 17 18 17 17 16 15 17 17 14 19 18 16 13 11 14 14 16 21 22 24 28 29 32 30 33 33 34 31 32
86 91 100 100 100 91 27 18 20 18 18 18 19 20 21 19 17 15 13 13 12 11 13 14 15 20 24 26 28 30 32 35 36 35 33 33 34 35
92 86 88 95 76 28 16 17 16 15 17 19 20 21 20 16 15 15 14 14 12 12 12 14 25 25 24 26 28 28 30 35 37 35 32 31 32 34
99 83 62 41 20 18 18 19 17 14 14 16 17 17 17 16 16 16 14 14 14 14 14 16 21 27 30 28 30 30 32 32 32 32 32 32 33 33
98 87 36 21 19 21 22 21 18 15 19 22 19 18 17 16 15 15 15 15 15 17 23 26 21 20 22 24 27 26 24 25 25 27 28 29 30 31
100 98 34 21 20 21 22 24 22 22 20 23 24 22 19 18 18 17 17 18 20 19 19 19 18 19 21 22 22 24 30 40 29 28 28 29 30 32
100 100 68 24 18 18 20 21 21 23 24 25 25 23 21 19 18 19 21 26 27 26 29 25 22 22 22 23 28 37 56 62 51 48 49 51 48 47
98 99 97 41 19 17 19 19 21 23 28 27 26 26 24 22 19 19 26 29 26 27 30 26 24 25 27 31 38 50 67 77 76 82 82 74 61 51
100 99 99 91 30 22 23 26 25 27 22 21 22 25 26 24 24 24 28 39 49 39 26 25 26 27 32 41 54 77 83 88 87 85 88 89 83 73
99 99 98 98 34 30 30 29 27 26 23 20 20 22 24 27 25 26 59 80 81 49 32 54 40 40 49 73 84 78 84 92 90 90 92 93 86 77
100 99 98 98 35 32 32 28 26 25 24 23 22 24 27 34 48 42 58 87 79 43 42 68 51 48 74 93 86 86 85 87 89 90 93 96 94 89
100 99 98 99 67 32 34 31 29 28 28 27 26 41 68 90 83 84 81 96 75 53 52 80 91 76 92 94 92 86 84 86 87 84 82 88 88 84

GFSNE_850_rhum_087.txt.gz
RH
82 83 72 74 67 50 50 47 51 64 72 76 83 78 69 78 82 96 93 91 98 99 100 100 96 94 97 95 89 86 100 89 95 91 90 92 83 57
87 75 73 76 52 53 48 49 54 62 85 80 80 76 82 78 84 90 87 96 99 98 99 98 99 99 98 91 80 71 89 90 89 86 86 87 88 88
80 83 81 59 56 52 50 52 53 58 82 89 92 89 93 86 90 87 90 96 99 98 92 98 99 98 93 85 76 74 78 91 91 79 85 87 88 87
81 80 66 60 55 53 55 53 52 55 65 94 99 100 98 97 91 88 97 100 100 99 99 100 99 98 84 82 78 85 76 69 89 89 90 93 93 98
78 69 62 56 53 54 54 53 56 68 76 87 98 99 99 92 89 85 86 87 96 98 99 100 100 95 87 79 85 86 84 88 94 90 88 91 100 99
76 67 59 54 52 54 56 60 64 79 94 91 97 98 98 95 93 91 90 90 90 94 99 99 99 92 93 84 81 83 85 83 88 88 90 90 95 100
68 61 56 54 53 55 58 57 66 77 82 95 100 99 95 95 94 94 97 96 99 100 99 100 93 97 94 84 77 72 74 74 81 80 86 86 88 96
63 59 58 57 54 53 52 60 68 78 91 100 98 99 98 100 99 95 97 100 99 98 98 94 97 97 89 86 73 58 37 26 33 57 76 81 86 86
64 63 62 56 52 50 51 59 68 95 96 94 98 99 99 99 99 98 98 98 100 99 100 92 62 70 71 59 39 24 16 14 13 13 22 58 74 81
67 64 60 58 54 50 56 71 90 98 99 99 94 98 99 99 98 99 98 99 99 99 99 87 47 29 22 17 18 20 13 12 13 10 9 10 24 61
66 63 59 55 54 66 76 92 99 99 92 58 31 23 29 44 52 83 88 89 93 67 54 48 31 21 18 16 19 17 14 16 20 18 17 14 11 9
66 64 61 61 64 87 96 99 99 99 81 42 20 15 15 17 20 40 53 60 64 54 28 28 20 17 19 17 19 18 21 22 24 24 24 28 27 26
70 67 65 70 82 99 99 100 100 99 59 23 17 16 18 18 22 25 26 29 29 28 17 13 16 17 19 32 28 23 25 27 28 29 28 29 30 31
76 74 72 79 92 100 100 100 100 84 28 20 18 18 18 18 18 17 16 14 13 13 15 11 15 18 23 26 26 26 27 29 31 31 33 32 30 29
83 81 80 87 96 100 100 100 100 38 26 19 18 19 19 20 20 18 15 14 13 12 12 11 12 23 25 24 26 31 30 28 28 29 29 29 28 28
90 87 89 94 97 98 100 100 75 26 22 19 19 19 20 21 20 16 14 14 13 13 13 13 15 19 27 29 28 27 24 27 25 26 26 25 26 26
96 100 99 97 97 93 100 98 52 31 26 23 20 18 20 21 18 16 15 14 14 14 19 25 26 26 27 24 18 20 21 22 22 24 39 54 55 53
99 100 99 100 96 93 76 72 46 35 29 25 22 24 23 21 18 17 16 14 16 18 30 36 38 41 43 37 29 22 21 23 29 42 58 68 70 70
99 100 99 99 99 97 96 53 34 33 32 29 28 27 27 29 24 20 18 18 20 27 38 41 36 40 43 38 39 29 29 38 44 50 65 73 72 73
98 99 100 100 99 99 98 81 33 28 27 32 32 28 27 28 26 22 20 20 22 28 36 35 45 54 50 30 32 35 33 34 50 71 74 71 71 72
100 97 97 99 99 100 100 99 64 31 22 28 30 28 28 28 28 27 24 21 25 26 30 39 59 68 48 40 52 57 46 45 62 75 74 74 72 70
100 100 98 100 100 100 100 99 99 78 25 26 28 27 26 26 26 28 28 26 25 25 30 58 69 82 51 47 62 67 54 57 62 74 81 80 78 76
100 99 100 100 100 100 100 99 100 81 31 25 30 29 29 24 24 26 30 32 30 48 62 61 82 86 63 56 64 80 81 74 81 79 76 76 76 74

GFSNE_850_rhum_090.txt.gz
RH
88 93 96 90 86 85 82 63 52 56 58 64 75 78 78 78 78 78 82 94 92 98 96 98 96 100 98 94 86 88 84 82 85 80 92 89 87 91
92 97 90 90 86 87 70 52 52 53 60 71 77 79 79 78 75 74 85 86 87 92 97 92 94 94 97 93 88 84 76 71 79 84 84 88 80 85
93 99 98 94 84 85 55 54 51 51 57 70 81 85 88 89 84 87 89 92 94 94 97 96 84 88 94 93 85 79 74 79 83 86 78 86 87 80
100 100 100 90 89 68 58 56 52 54 59 64 91 99 99 98 95 99 89 94 100 98 100 93 98 99 99 92 85 76 79 82 72 76 90 88 100 100
100 88 90 90 79 64 59 54 55 56 59 80 99 91 96 95 98 93 88 87 85 87 90 96 99 98 96 87 86 79 83 81 80 92 89 84 97 100
98 97 97 81 69 63 58 58 62 65 63 75 99 99 96 99 100 93 90 89 88 86 89 93 98 99 97 85 93 81 81 82 79 84 88 85 84 98
100 97 84 75 68 61 58 60 62 63 66 94 100 100 97 99 96 92 92 93 90 91 94 94 96 87 88 97 92 79 74 73 73 77 79 80 85 87
96 88 82 72 64 60 57 57 55 59 62 72 86 94 96 99 98 94 95 95 94 96 95 96 91 89 95 94 87 81 66 46 33 41 62 71 74 85
89 78 70 64 61 59 56 54 55 60 77 82 86 91 99 100 100 98 98 97 95 98 99 96 90 93 52 71 77 60 28 16 14 14 14 39 62 70
76 70 66 64 62 58 55 52 56 70 85 92 97 97 96 98 99 98 98 98 98 99 97 97 97 73 36 25 20 18 15 14 13 14 10 11 20 53
75 72 70 67 63 58 54 60 74 82 86 95 95 84 55 64 80 85 96 99 98 97 97 94 63 38 22 17 16 14 14 14 20 20 16 12 9 9
76 74 71 66 63 60 57 66 79 88 88 88 71 41 20 19 32 28 44 52 74 74 52 46 40 24 14 14 16 16 17 20 23 24 21 24 22 21
80 76 70 67 63 65 68 79 87 95 92 89 61 34 18 18 19 23 32 39 50 49 25 15 15 14 13 22 20 18 21 26 26 26 25 27 28 29
83 79 74 73 72 71 80 92 99 99 98 87 41 22 18 17 18 23 30 34 23 38 25 15 10 12 11 14 21 23 25 27 27 28 30 29 28 29
88 86 85 80 77 78 86 100 99 98 100 78 29 20 18 19 18 21 19 17 15 15 14 12 11 15 16 18 21 23 27 34 29 26 29 30 30 28
98 96 93 87 85 84 96 99 99 100 98 59 24 24 23 19 20 22 18 16 14 14 12 11 11 14 18 20 26 31 32 25 24 24 26 26 26 25
100 100 100 100 96 91 99 100 100 100 94 40 26 24 22 21 22 21 19 17 16 15 13 13 14 23 30 29 30 23 18 18 21 23 23 24 46 57
100 100 100 100 99 97 94 99 99 100 93 35 25 22 21 20 22 22 20 16 16 14 14 19 26 28 39 45 44 41 26 19 20 22 30 48 64 68
99 100 100 100 99 100 99 95 92 88 77 34 29 24 21 22 24 22 20 17 16 16 18 31 39 40 40 45 48 44 27 24 28 37 45 50 57 67
99 99 99 100 100 99 99 99 97 90 58 39 37 33 27 28 27 26 22 19 18 18 23 35 41 37 46 50 48 38 38 36 34 34 44 58 61 61
99 98 99 99 100 100 99 99 99 98 87 41 32 34 34 33 30 29 29 25 22 22 24 31 35 44 55 63 58 46 53 57 52 46 52 66 66 66
99 98 99 100 99 99 99 99 99 100 96 54 29 28 35 32 29 29 30 28 23 21 24 28 32 47 64 79 63 47 61 69 63 60 62 68 75 78
98 99 99 99 99 99 99 99 99 100 99 92 68 26 29 30 30 28 30 34 32 29 28 28 36 62 69 87 68 55 59 73 81 79 76 79 78 76

GFSNE_850_rhum_093.txt.gz
RH
97 98 95 74 79 86 81 86 81 92 68 62 61 60 63 72 69 66 73 71 84 92 96 99 94 90 92 92 96 91 84 84 81 74 71 68 67 69
98 93 93 80 82 89 79 80 88 84 63 59 55 62 69 76 82 77 73 74 84 85 93 97 95 87 88 92 95 93 87 78 72 69 66 74 70 63
86 81 86 77 88 91 90 91 91 70 58 59 66 70 77 84 86 86 81 80 83 92 89 94 97 90 82 84 87 85 82 75 71 70 76 72 74 99
87 88 90 93 97 100 96 92 75 59 58 58 67 78 87 95 99 95 85 86 87 99 99 91 99 90 92 98 97 89 80 73 78 76 74 82 85 99
100 99 99 99 100 100 94 91 64 62 59 60 68 76 87 99 99 96 92 94 87 88 88 90 91 92 93 97 96 86 81 84 83 78 78 87 84 94
100 100 100 100 100 100 93 82 66 62 62 62 64 78 100 100 100 98 99 92 91 90 90 87 86 89 93 94 92 87 89 83 77 77 74 80 86 84
100 100 99 100 100 100 89 73 67 63 67 70 70 83 98 98 99 99 99 93 90 90 88 87 89 88 88 88 88 98 87 76 69 69 72 72 78 85
98 99 100 100 100 92 79 73 73 66 60 64 71 82 92 99 99 96 97 94 95 96 92 90 92 88 88 92 94 92 84 72 56 42 44 60 63 81
100 100 100 99 94 87 80 72 66 63 61 67 64 64 77 81 95 99 99 97 94 94 96 92 93 90 88 92 59 78 71 40 19 15 14 16 42 62
100 100 100 96 88 79 71 68 66 67 62 58 57 56 63 78 89 97 100 99 98 98 97 98 92 95 93 68 31 22 16 15 13 12 11 11 12 36
94 91 86 83 79 75 70 66 64 60 57 60 56 64 78 85 87 99 100 100 99 98 99 98 89 74 64 35 21 19 15 14 14 15 12 9 8 9
91 89 87 82 80 77 71 68 63 58 60 63 71 78 82 70 44 39 67 64 100 84 65 80 66 49 27 18 17 17 16 12 18 21 19 19 18 15
96 92 88 83 80 79 71 70 63 66 71 80 82 83 62 37 27 27 31 33 36 42 44 42 38 33 24 18 16 17 16 19 22 23 25 25 24 26
99 94 90 88 83 79 76 73 78 84 85 82 84 77 51 30 19 19 26 32 36 46 53 36 14 11 14 14 22 22 21 22 24 26 27 27 25 26
100 100 100 99 92 84 78 76 92 92 96 93 85 78 43 23 18 19 21 26 27 22 29 26 22 11 14 16 17 21 23 26 26 27 29 30 29 28
100 100 100 100 100 94 91 89 96 95 99 98 93 72 31 21 18 20 19 17 19 16 14 17 13 12 20 19 22 22 31 40 35 31 27 27 27 27
100 100 100 100 100 99 100 100 99 100 98 100 99 72 31 22 21 21 20 20 17 13 13 13 12 12 17 20 27 31 27 21 20 23 24 24 24 27
99 100 100 99 100 99 100 100 99 99 99 100 100 74 31 24 23 23 22 19 16 15 16 16 13 14 21 32 38 44 45 35 20 20 21 22 32 56
99 99 98 99 99 100 100 99 100 99 100 99 98 80 37 29 31 26 23 19 17 17 17 15 15 25 28 41 45 47 48 33 24 22 23 26 42 56
99 99 100 99 99 99 100 99 99 99 99 99 99 89 41 36 35 28 23 20 19 17 17 17 22 35 39 39 44 52 52 45 37 33 34 37 43 51
100 100 99 99 99 99 99 99 99 99 99 98 98 90 45 45 36 30 26 23 22 19 16 16 26 41 37 40 49 58 47 44 54 55 48 43 42 49
99 99 99 99 99 99 99 99 99 99 99 98 98 93 63 49 42 36 35 33 26 21 19 20 30 37 38 46 63 83 54 50 62 66 62 62 64 69
99 99 99 100 99 99 99 99 99 99 99 98 98 97 78 48 50 42 37 35 30 26 23 23 29 31 34 54 96 94 74 51 61 71 76 77 76 76

GFSNE_850_rhum_096.txt.gz
RH
90 94 88 85 88 95 97 100 100 95 94 86 80 74 66 66 72 70 67 65 67 71 86 98 100 100 93 85 86 90 94 88 82 80 75 74 69 66
84 91 100 100 98 100 98 100 99 78 87 89 81 65 61 64 70 75 73 68 69 71 81 86 98 100 90 85 86 85 89 87 83 79 72 70 68 68
95 94 99 100 98 93 92 92 85 81 90 94 72 65 66 69 68 76 81 84 79 74 76 80 95 94 91 90 83 83 87 88 83 75 74 74 71 74
92 98 94 88 89 91 92 93 89 91 99 99 85 65 64 71 84 89 91 92 83 87 88 100 95 90 89 88 92 93 93 87 78 75 72 70 67 82
99 99 100 94 86 95 100 99 98 100 98 86 67 65 66 74 80 90 92 84 81 86 87 88 89 92 90 91 93 92 92 85 78 76 77 68 78 85
99 100 100 100 98 94 100 99 100 99 94 68 63 66 68 74 90 87 98 94 87 88 87 88 89 88 86 85 88 94 90 85 83 78 76 72 72 84
100 100 99 97 100 100 98 100 100 100 84 67 68 68 70 73 71 84 96 97 81 92 89 89 88 90 90 86 88 84 89 94 85 72 67 68 66 72
98 99 98 100 100 100 100 100 100 96 81 71 70 67 64 67 71 84 100 92 92 89 93 92 92 92 91 88 87 92 94 91 80 64 48 36 48 60
98 91 96 99 100 100 100 99 99 91 89 78 74 77 70 72 81 84 92 91 95 94 95 94 94 93 92 89 88 92 63 77 63 29 16 14 14 39
98 96 96 99 100 100 100 100 94 87 84 82 72 82 81 86 77 80 90 98 99 98 96 98 95 93 89 91 93 78 29 20 14 12 11 11 11 14
100 100 100 99 100 100 100 100 94 86 81 74 74 77 70 71 72 84 93 100 100 99 99 98 98 94 93 92 79 41 22 15 12 12 13 10 9 10
100 100 100 99 96 96 94 90 85 77 73 73 72 69 68 78 85 92 93 94 100 97 92 87 85 77 78 56 39 23 16 13 12 17 18 16 15 13
99 98 100 100 98 95 91 85 80 78 75 73 75 78 84 86 87 84 61 55 60 47 44 59 57 68 57 16 15 17 17 15 15 21 20 21 24 24
98 100 100 100 100 100 97 91 89 83 79 77 78 78 81 84 75 47 35 32 27 31 49 42 36 33 36 31 17 16 14 16 20 23 23 25 26 27
99 98 100 100 100 100 100 98 98 88 79 78 78 78 80 77 50 32 25 24 29 29 38 54 43 17 13 19 13 20 20 21 22 23 25 28 27 28
100 100 99 100 100 100 100 100 100 95 87 82 80 88 93 75 43 26 20 22 30 36 36 38 46 25 13 15 14 18 23 33 40 41 31 28 29 30
99 99 100 100 100 100 100 100 100 100 99 99 100 100 99 80 40 24 21 24 27 25 24 26 25 18 15 18 17 23 24 35 34 28 25 26 27 28
99 100 100 99 100 99 100 100 99 100 100 100 100 100 100 91 42 26 23 22 24 22 20 17 14 14 14 18 24 26 36 40 34 23 19 23 24 24
98 100 99 99 99 99 99 99 100 100 99 100 100 99 99 100 49 30 27 27 26 27 22 18 16 14 14 18 29 42 47 46 41 28 20 21 23 28
100 100 100 99 99 99 100 99 99 99 99 99 99 99 99 98 70 40 36 32 28 25 21 21 20 17 16 26 40 46 47 54 43 28 24 24 30 36
97 100 100 99 99 99 99 99 100 99 99 99 98 98 99 98 93 44 36 34 30 27 22 20 16 21 25 34 43 43 52 52 47 42 38 37 36 38
96 100 100 100 99 99 99 99 100 99 98 99 99 99 98 98 97 64 34 33 30 26 20 20 24 33 37 41 38 45 62 62 50 52 60 64 59 60
100 98 100 100 100 98 99 98 99 98 99 98 98 98 98 98 96 93 65 37 32 29 26 23 26 36 41 42 42 55 79 84 64 55 60 69 73 75

GFSNE_850_rhum_099.txt.gz
RH
84 92 87 84 77 77 82 90 100 98 99 97 92 88 94 94 90 70 61 57 55 55 56 56 72 88 98 99 96 84 84 90 90 89 85 80 73 67
93 83 89 86 81 82 98 100 100 100 100 99 100 96 98 92 80 67 65 66 63 61 61 64 74 88 99 100 96 87 84 82 86 86 83 75 72 69
97 100 96 95 95 100 96 99 100 100 100 100 100 98 95 88 65 70 70 74 73 74 71 68 73 86 96 88 88 85 84 82 90 88 78 74 71 66
99 100 99 96 92 91 100 92 88 96 100 97 92 90 86 82 70 72 81 80 82 81 79 71 70 78 89 90 89 88 84 93 94 85 79 77 75 55
91 91 86 93 91 95 91 96 91 95 94 94 88 94 88 73 71 77 76 80 85 83 77 74 70 81 84 89 88 86 93 94 91 85 81 78 72 51
100 100 99 99 100 99 99 90 94 98 100 100 100 100 96 76 73 73 77 86 84 81 77 74 79 86 88 89 87 89 91 92 89 86 84 76 69 54
100 97 99 99 100 100 100 100 100 100 100 100 100 100 92 71 69 70 79 94 89 81 70 75 77 84 88 86 86 87 86 88 90 90 82 67 57 52
99 99 97 97 99 100 100 99 100 97 98 99 100 99 80 65 69 71 77 84 92 79 72 77 82 89 89 89 90 89 90 90 89 82 75 51 36 37
89 98 98 97 99 100 100 100 100 100 100 100 98 94 78 70 74 78 73 72 72 86 79 82 88 92 93 93 92 90 89 90 59 67 48 20 15 14
99 100 99 96 95 100 100 100 100 100 100 100 99 88 81 84 84 96 94 80 88 96 92 96 92 94 93 96 93 92 90 82 26 16 13 11 11 12
100 100 99 98 100 100 100 100 100 100 100 100 96 100 98 99 84 84 82 86 98 92 98 100 95 95 93 95 92 92 87 45 19 12 12 12 10 10
90 95 100 100 99 100 100 100 100 100 99 100 95 92 89 83 84 67 70 69 90 100 98 99 97 90 92 83 84 73 52 24 14 12 15 16 12 11
97 93 89 98 98 99 100 100 100 100 100 100 99 97 98 93 74 74 81 80 92 100 86 88 77 81 74 19 41 50 32 17 13 14 20 20 21 23
100 99 95 86 99 99 99 99 100 100 100 100 100 100 93 81 82 83 84 93 94 100 92 65 55 56 63 63 26 16 19 16 14 20 25 23 25 27
100 100 99 99 99 100 98 97 100 100 100 97 89 80 74 80 85 85 92 86 77 78 82 68 50 52 38 46 35 14 16 15 17 23 25 24 26 26
94 100 100 99 100 100 100 100 99 100 100 99 91 82 86 93 94 92 85 54 52 56 50 50 60 50 18 12 19 14 22 21 21 24 26 28 31 31
100 98 99 99 99 100 100 100 99 99 100 100 99 93 95 97 95 87 61 45 40 45 40 42 53 50 42 22 14 14 20 25 38 35 40 35 31 28
100 100 99 100 99 99 100 100 100 100 99 99 100 100 100 100 98 76 49 39 34 34 34 39 38 40 38 21 16 17 23 24 33 30 26 25 24 25
100 98 99 99 99 99 99 99 100 100 100 100 98 99 99 99 99 93 54 40 41 39 34 32 26 24 20 18 14 22 24 30 35 35 29 23 20 22
95 92 96 98 99 100 99 99 99 99 99 99 99 99 99 99 98 98 92 44 38 33 30 27 21 16 14 12 14 20 30 43 45 42 33 24 22 22
90 92 94 95 99 100 98 98 99 99 99 99 98 99 99 99 98 98 98 54 41 37 33 27 19 20 21 18 20 32 45 46 50 41 34 29 25 28
88 88 91 97 96 97 99 99 98 98 99 100 99 100 99 99 98 98 98 90 48 42 38 30 25 23 25 22 27 40 45 50 52 48 45 42 44 50
95 95 92 91 93 97 100 98 98 99 98 98 99 99 97 98 98 98 98 97 54 55 45 33 27 29 27 27 32 41 44 56 62 59 54 56 69 69

GFSNE_850_rhum_102.txt.gz
RH
95 93 90 98 95 98 90 98 97 100 97 82 84 76 81 88 92 87 92 88 80 64 55 59 58 62 71 93 85 94 94 84 82 85 85 85 80 72
75 89 93 95 91 91 85 92 94 98 100 100 97 91 88 92 94 100 98 84 78 70 66 63 57 56 59 72 96 95 94 86 83 81 85 86 76 72
100 96 86 70 78 96 99 99 100 100 100 100 99 98 100 100 100 100 90 86 84 77 69 68 64 61 66 72 95 87 83 87 85 84 86 82 75 72
100 100 98 91 87 100 99 96 100 97 100 100 100 100 100 100 100 95 90 87 88 77 75 73 71 64 62 74 84 88 86 87 85 87 87 78 75 72
100 99 91 95 96 97 100 100 96 96 100 100 99 100 98 97 96 92 95 91 88 89 83 90 81 73 61 70 90 88 87 88 85 87 85 79 77 69
87 91 98 100 100 97 97 99 94 100 96 100 100 99 99 99 100 98 97 90 97 96 99 91 82 70 73 79 82 82 87 86 86 86 83 80 77 62
68 77 86 98 100 100 100 99 100 100 100 100 100 100 100 99 96 91 98 90 96 97 95 80 76 70 74 86 86 86 85 85 86 86 84 81 69 52
52 64 81 87 96 100 100 100 99 100 100 100 91 97 100 99 100 98 98 100 100 90 87 78 75 66 75 87 89 89 88 88 88 87 72 75 56 38
31 49 64 85 94 95 91 100 100 100 100 99 100 100 100 88 95 99 99 88 80 79 72 69 76 78 82 92 93 91 92 89 89 83 49 59 33 17
22 32 61 67 98 99 98 89 93 100 100 100 99 98 98 100 97 97 94 90 95 91 96 79 78 86 91 94 94 94 93 92 90 58 22 14 10 10
28 27 47 72 84 96 94 96 97 94 100 100 100 100 100 100 100 96 90 99 98 97 94 72 80 91 92 95 95 97 95 92 87 30 14 10 9 8
28 80 99 96 94 94 98 98 97 98 100 100 100 100 100 99 96 96 84 99 100 100 84 72 82 91 99 94 96 96 92 89 67 21 12 12 9 8
56 76 94 100 100 98 99 100 98 99 98 100 100 100 100 100 94 100 95 100 85 81 73 77 82 99 93 57 88 92 91 78 35 15 14 17 14 12
99 99 92 93 98 98 99 100 100 100 99 99 100 100 100 99 98 99 85 96 93 88 85 82 75 88 94 76 23 72 74 49 23 16 16 19 18 19
100 100 100 76 86 96 96 100 100 100 100 100 99 99 100 100 100 100 98 91 91 100 100 100 98 53 74 86 55 22 20 29 19 16 18 21 20 21
100 100 100 100 89 96 100 98 100 100 100 100 99 100 100 100 100 100 97 91 97 100 100 100 100 66 58 70 71 43 18 17 16 16 21 24 23 24
98 99 99 100 100 91 99 100 99 100 100 100 100 98 100 100 100 100 100 100 100 100 97 98 97 82 55 27 20 30 16 18 18 18 22 25 27 31
96 94 96 95 96 95 96 99 99 99 99 100 100 100 100 100 100 100 100 99 99 96 90 84 77 70 72 50 19 17 16 25 29 23 32 38 36 36
88 88 91 94 94 96 97 99 99 99 99 99 100 99 100 100 99 100 100 99 99 76 76 75 62 60 71 70 35 16 18 24 30 38 36 30 27 25
90 91 87 94 95 88 90 95 98 98 98 99 99 99 99 100 99 99 98 98 97 76 71 69 69 61 49 35 27 17 17 26 26 34 38 34 31 25
87 86 87 91 88 87 94 93 98 98 98 98 99 99 99 98 99 99 98 98 97 88 67 56 42 40 34 34 24 16 19 28 31 40 44 37 28 25
83 92 94 96 87 91 99 91 97 98 98 98 98 98 98 98 99 99 98 98 97 97 65 43 36 27 26 26 20 18 28 30 38 45 43 35 32 29
92 94 100 99 93 92 93 94 95 97 98 98 98 98 98 99 99 98 99 98 97 97 93 49 44 31 27 25 23 26 41 47 49 51 48 44 42 47

GFSNE_850_rhum_105.txt.gz
RH
100 99 87 84 90 89 84 87 80 92 96 66 84 80 74 77 79 85 92 99 91 78 72 81 70 72 93 98 97 93 85 75 78 81 76 78 80 75
95 98 97 92 90 92 91 89 92 99 100 98 85 82 84 79 77 91 96 100 94 90 90 84 69 73 69 80 66 83 76 63 78 80 80 75 78 74
97 100 100 96 99 97 95 95 93 93 89 98 85 85 94 98 98 100 100 100 100 99 83 73 69 64 66 64 65 79 79 78 75 86 83 81 80 74
100 100 98 99 100 95 94 98 95 87 100 95 99 99 90 96 94 100 100 100 100 89 86 81 75 70 73 74 76 82 86 87 81 82 79 83 82 74
84 88 99 99 100 100 99 100 100 89 90 100 99 99 100 100 100 100 100 100 98 93 90 84 82 82 82 77 70 69 92 87 82 84 86 85 82 78
55 71 80 91 97 99 100 99 92 99 100 100 100 98 99 99 100 100 100 100 92 96 90 85 88 87 90 81 72 77 96 86 77 82 85 83 80 76
15 26 42 63 82 98 98 99 100 100 100 91 99 100 100 99 97 95 100 99 100 99 91 93 91 89 86 79 71 82 88 82 84 84 86 81 80 76
18 16 14 16 35 58 85 99 100 100 100 100 100 98 99 99 100 99 100 100 100 100 100 98 97 96 86 87 81 81 82 88 85 86 85 79 75 66
18 18 19 19 16 22 42 78 91 95 99 100 100 96 100 96 95 100 98 99 95 91 90 96 99 100 93 95 90 90 90 90 90 88 83 69 64 53
15 16 17 17 20 28 36 44 61 86 94 90 100 100 99 100 100 98 99 97 100 100 100 98 97 99 94 95 92 86 90 94 94 88 82 42 40 22
16 14 21 28 30 33 78 94 79 87 92 90 86 99 100 99 100 100 100 100 100 100 100 99 91 85 80 91 92 97 95 96 94 90 77 18 12 11
38 28 21 30 88 100 100 100 98 90 95 90 95 96 96 99 100 99 100 100 100 100 99 96 94 96 98 92 97 100 96 96 93 87 54 15 12 11
92 92 78 31 49 100 96 97 98 99 94 94 98 100 100 100 100 100 100 100 100 98 85 91 94 99 85 90 99 100 98 92 87 80 32 13 14 10
100 100 100 98 94 82 93 82 95 97 100 99 100 99 100 100 99 99 100 100 100 92 88 90 96 96 84 80 68 93 95 94 84 63 17 15 17 13
96 100 100 100 100 100 93 98 75 98 100 100 99 100 100 100 100 100 100 100 100 100 99 100 95 77 84 86 72 39 87 89 78 39 17 18 19 20
91 88 91 97 100 100 100 98 98 99 100 100 98 100 100 100 100 100 100 100 100 100 100 100 99 91 84 95 92 36 37 61 56 30 21 21 21 25
99 92 87 87 84 91 93 93 94 96 98 100 99 99 100 100 100 100 100 100 100 99 100 100 100 100 93 63 76 78 40 23 19 25 18 21 26 25
97 98 88 82 85 85 86 89 88 98 98 100 99 99 99 100 100 100 100 100 100 100 100 99 100 100 94 74 75 66 49 30 18 21 19 26 26 27
98 88 86 86 86 88 90 90 92 96 98 99 99 99 99 99 99 100 100 100 99 100 99 99 99 100 89 66 38 28 32 20 22 21 23 28 28 33
88 81 79 84 88 90 93 88 90 93 96 98 98 98 98 98 99 99 100 99 99 99 99 99 98 100 83 51 42 28 20 24 25 27 26 39 40 35
97 89 76 85 92 96 93 89 94 99 98 98 97 96 98 98 98 98 99 99 99 99 98 98 98 99 82 68 69 42 25 20 33 37 39 38 34 33
90 84 82 88 91 100 95 97 94 95 87 97 97 97 98 97 97 98 98 98 99 99 99 98 97 89 88 91 64 38 25 23 35 36 36 38 38 36
86 88 87 91 89 94 95 100 100 92 98 96 97 100 98 97 97 97 98 99 98 98 98 97 97 93 100 84 43 25 24 32 33 35 40 40 36 34

GFSNE_850_rhum_108.txt.gz
RH
99 93 100 95 100 100 100 100 100 98 96 84 89 78 74 73 73 72 68 74 93 92 92 95 77 80 61 78 83 93 100 100 99 96 82 78 75 70
98 100 100 98 100 100 100 97 92 96 100 89 82 88 79 82 77 69 72 88 91 89 91 100 88 76 69 74 88 100 99 85 93 88 70 83 77 72
100 96 98 90 100 100 99 95 96 100 100 94 88 85 90 84 82 75 84 82 83 88 99 100 96 84 83 87 99 96 71 71 84 76 78 82 83 78
67 79 92 100 94 98 100 100 100 100 100 100 100 99 95 88 80 92 90 96 95 97 100 100 100 96 95 97 84 71 71 66 81 84 77 81 81 81
36 45 59 74 86 99 99 98 100 99 92 92 96 100 100 91 88 92 93 100 100 100 100 100 100 100 99 89 83 77 73 76 85 94 82 82 83 85
18 16 20 32 50 67 80 91 97 100 100 97 88 100 91 95 99 100 100 100 100 100 100 100 98 94 91 94 85 78 76 74 84 94 85 79 85 82
18 19 20 19 18 22 42 59 78 86 96 100 100 100 100 99 99 98 98 100 100 100 100 99 97 97 98 96 86 84 78 71 87 92 76 82 84 82
9 10 12 16 18 19 20 22 49 87 94 95 100 100 97 95 91 99 100 100 100 98 99 99 100 99 93 93 87 82 81 72 86 81 80 81 82 80
12 10 9 10 11 17 18 21 24 35 85 99 100 100 100 99 92 100 99 94 90 90 99 100 97 97 97 97 92 87 80 72 80 87 86 84 84 79
23 20 18 16 20 69 88 63 60 52 43 66 93 100 100 100 98 100 99 94 98 98 100 100 99 98 99 96 98 90 79 75 75 84 88 89 84 67
86 73 47 39 53 28 69 99 100 100 97 85 63 89 100 100 100 100 100 100 99 99 99 100 98 100 100 100 100 94 92 75 82 92 94 89 84 40
84 85 87 91 79 83 88 96 96 94 89 87 92 74 85 99 98 100 100 100 100 100 99 100 100 99 100 100 99 93 97 92 95 94 97 90 79 18
84 84 87 97 97 99 100 100 100 100 99 88 85 85 86 90 100 100 100 100 100 100 98 100 98 100 100 96 96 90 99 98 98 99 99 90 67 15
90 87 92 97 99 94 93 97 98 100 100 85 80 92 89 81 94 100 99 100 100 99 97 99 100 99 99 98 95 98 96 98 100 99 97 86 47 15
97 89 84 95 98 97 97 96 94 100 99 99 89 99 98 81 79 99 99 100 100 98 100 100 99 100 98 89 87 87 94 97 100 100 94 81 25 13
95 91 90 97 97 98 93 93 95 88 95 94 99 94 100 100 100 100 100 100 100 100 100 98 100 100 100 100 93 82 81 96 99 99 88 63 19 19
98 88 86 99 95 91 91 91 89 86 93 88 98 95 98 99 99 100 100 100 100 100 100 100 100 100 100 99 98 84 69 82 79 93 90 41 21 23
94 92 100 97 93 91 91 86 90 92 79 81 94 98 98 99 100 100 100 99 100 99 99 100 100 100 100 100 100 94 77 52 70 77 80 28 23 25
94 98 94 94 95 90 87 86 88 86 84 98 96 96 96 98 99 98 99 99 99 100 100 100 100 100 99 99 99 96 80 45 67 42 68 29 23 29
95 93 97 98 96 91 87 87 91 88 91 93 97 95 97 98 100 98 98 99 99 99 100 100 100 99 100 98 97 89 83 70 47 24 46 32 31 33
98 97 99 95 95 96 95 91 94 93 97 100 99 95 97 97 97 96 99 98 98 98 98 99 99 99 99 99 97 68 65 53 41 24 24 28 35 37
96 96 99 100 100 100 96 97 96 97 97 100 99 97 97 97 97 97 97 97 98 98 98 99 99 98 99 98 95 39 36 42 43 35 37 24 30 40
100 100 100 100 100 100 100 99 98 98 100 100 96 96 97 97 98 96 97 98 99 97 98 97 97 98 98 97 97 89 40 36 40 47 56 47 40 40

GFSNE_850_rhum_111.txt.gz
RH
100 100 100 100 99 99 100 100 100 99 99 96 90 87 87 87 74 65 60 66 66 67 64 61 58 71 85 92 87 95 98 97 99 98 98 93 74 70
98 98 100 100 100 94 99 99 100 100 100 99 97 92 86 85 81 69 65 69 74 82 75 66 59 72 84 96 91 89 100 100 87 100 99 89 77 62
67 82 78 84 96 100 98 94 100 100 100 94 89 89 94 94 91 85 84 81 82 79 80 73 72 74 87 100 98 96 99 94 95 100 96 80 74 69
42 46 35 60 75 75 88 100 99 100 100 100 90 99 100 97 95 93 90 87 79 81 75 70 72 85 94 100 100 100 98 92 100 100 88 77 71 70
21 20 20 20 22 32 43 73 87 96 100 99 100 100 97 99 100 97 91 88 87 85 86 77 79 86 99 100 100 100 93 100 100 88 73 73 71 76
14 16 18 20 22 23 19 20 29 41 62 79 94 100 100 100 100 97 100 95 97 99 100 97 92 97 100 100 99 98 100 93 84 74 75 74 76 79
12 13 11 8 8 12 20 21 21 23 27 46 68 87 98 99 99 100 96 96 99 100 100 99 98 100 100 99 98 100 92 90 86 79 73 70 79 76
17 13 12 11 17 11 32 55 37 30 35 84 99 100 99 100 100 100 100 100 99 98 99 99 100 99 98 98 98 93 91 94 85 79 70 81 85 72
36 31 26 34 35 46 54 50 36 62 68 87 97 99 99 99 100 100 100 100 98 99 100 100 100 99 99 100 94 91 95 90 86 78 71 82 82 80
74 65 62 62 54 85 66 54 44 47 58 48 76 97 99 97 100 100 100 100 100 100 100 100 99 99 98 99 98 99 99 96 87 77 68 76 79 80
81 78 80 83 81 53 53 52 57 55 44 40 45 77 96 86 86 100 99 100 100 98 99 100 99 100 100 100 99 100 100 100 95 86 69 70 79 82
80 78 77 83 96 94 91 100 99 89 53 35 34 20 22 22 29 58 98 100 100 100 98 100 99 100 100 100 100 100 100 100 100 96 76 75 80 83
89 86 81 84 96 96 95 95 94 93 93 95 73 29 31 57 35 60 55 94 100 100 98 99 100 100 100 100 100 100 99 99 100 100 77 77 86 87
93 90 85 85 84 98 98 98 95 96 90 87 95 96 94 87 90 98 79 65 81 100 100 99 100 99 99 100 99 98 99 100 100 97 77 80 87 88
86 86 88 84 75 67 74 88 87 80 87 84 80 77 84 97 96 82 97 99 99 95 100 100 98 100 100 99 98 98 100 99 98 100 87 85 82 83
91 96 94 95 87 92 92 78 73 83 93 94 85 90 83 89 91 88 90 97 99 99 96 100 100 100 100 99 100 100 100 98 98 100 99 90 90 92
97 95 90 83 86 86 88 81 81 78 85 83 84 83 88 78 94 92 92 100 99 100 99 99 100 100 100 100 100 100 100 100 100 99 100 95 99 91
92 91 81 84 89 91 81 77 83 90 86 87 86 88 96 100 99 98 95 99 99 99 99 98 99 100 100 100 100 100 100 100 100 100 100 97 98 87
95 91 97 97 94 90 87 86 86 87 85 87 90 92 95 99 99 98 98 99 99 98 99 100 100 100 100 99 99 100 100 100 100 100 99 100 95 72
97 94 89 90 94 90 88 90 92 90 90 93 90 94 95 96 96 96 97 98 99 97 100 100 99 99 99 98 95 98 99 100 99 100 100 100 96 57
95 92 92 93 93 91 93 96 96 92 95 93 95 95 94 98 96 96 96 97 99 97 97 98 98 98 98 99 99 98 97 98 98 97 93 99 86 49
91 93 91 92 93 96 98 97 94 90 91 92 95 97 94 98 96 97 97 98 97 97 97 98 99 98 98 99 99 97 96 97 97 98 74 67 65 36
95 94 92 94 95 100 99 96 95 98 95 93 92 92 94 96 96 96 97 96 97 97 97 98 97 98 97 98 98 98 97 97 97 94 90 84 51 28

GFSNE_850_rhum_114.txt.gz
RH
99 100 100 99 100 100 100 100 100 100 100 98 91 84 89 87 87 81 83 70 62 62 66 69 76 74 70 63 54 65 57 68 87 100 100 92 96 99
70 78 89 93 97 96 98 100 100 100 100 100 99 94 96 95 91 95 93 84 81 68 76 72 70 71 70 68 72 70 76 77 89 99 99 99 96 97
38 32 49 47 59 58 78 86 87 96 100 95 96 99 100 100 100 99 92 92 83 84 77 76 79 80 78 75 71 72 79 81 90 98 100 100 90 96
50 65 51 29 31 56 48 28 69 80 89 98 91 92 98 100 99 100 97 100 93 90 91 92 87 80 79 80 74 74 74 89 92 99 100 100 88 99
12 20 28 36 29 22 22 29 26 33 36 59 83 87 92 98 100 100 100 100 100 99 98 99 96 96 96 92 80 88 91 97 99 100 100 97 97 97
15 23 27 38 26 17 16 21 24 24 25 26 32 44 66 80 98 100 100 100 98 97 100 100 100 100 100 99 93 93 94 94 100 100 98 97 99 75
17 24 25 22 21 28 45 78 72 41 32 31 33 43 62 94 99 99 99 100 98 98 99 94 95 99 94 96 95 98 100 98 100 98 98 100 82 70
20 24 26 28 40 52 58 50 64 74 91 86 75 93 89 99 99 100 100 99 99 91 98 96 93 90 90 95 88 97 100 100 96 99 100 88 74 70
40 46 52 60 70 70 70 59 40 35 48 83 92 90 91 86 99 98 98 100 100 99 100 98 99 96 98 98 100 100 100 98 100 100 95 89 77 70
52 67 76 75 77 76 77 58 48 42 51 50 53 51 50 46 48 86 98 98 98 99 100 100 98 98 99 100 100 100 100 100 100 97 91 91 82 73
80 82 79 79 82 89 88 78 75 54 50 53 57 54 40 28 31 37 33 64 86 98 96 100 98 99 99 99 99 100 100 100 100 100 96 92 83 73
94 83 72 84 87 95 91 90 93 82 86 80 47 35 38 42 46 44 66 85 92 92 96 100 100 100 100 97 100 100 100 100 100 100 100 94 87 74
98 92 80 92 93 92 93 93 90 94 94 81 75 74 53 63 68 99 100 92 100 100 99 100 100 100 100 100 94 100 100 100 100 100 100 100 97 80
94 94 91 89 95 94 92 89 92 96 92 75 85 82 82 81 87 69 76 99 89 92 98 100 100 100 100 100 99 98 100 99 100 100 100 100 100 92
96 96 99 94 91 95 82 87 91 93 78 79 87 82 80 78 77 76 62 56 68 75 75 95 100 99 100 100 99 98 100 98 99 100 100 100 98 98
90 89 84 88 90 78 73 70 78 76 76 78 83 81 82 82 79 87 100 99 98 86 85 82 96 100 99 100 100 100 99 98 98 99 100 100 100 100
96 94 93 84 82 76 76 86 81 72 72 74 82 87 84 82 80 82 100 100 100 100 88 88 97 99 100 100 100 100 100 100 100 99 100 100 100 100
94 96 90 92 85 93 94 93 92 90 80 82 86 84 90 91 84 83 96 100 100 100 100 89 99 100 100 99 100 100 100 99 99 100 100 100 100 100
93 94 96 92 92 92 95 97 95 83 84 89 87 94 94 88 92 88 89 98 97 100 100 100 98 100 100 100 99 100 100 100 100 100 100 98 99 99
90 90 86 82 86 89 88 89 87 87 88 88 86 91 91 92 92 94 97 98 98 99 99 99 98 98 99 98 99 98 100 99 99 100 99 99 100 100
96 94 85 83 83 84 85 87 89 90 92 94 92 92 91 92 94 96 97 96 96 97 97 97 90 98 98 100 99 99 100 99 100 100 99 100 99 99
92 96 96 98 99 97 91 91 92 90 89 94 97 98 95 92 97 97 94 96 96 97 96 95 96 98 98 98 100 98 98 99 99 99 99 99 93 96
97 98 96 95 96 97 96 95 98 97 97 98 98 98 96 98 98 95 96 96 96 97 96 96 97 97 98 97 96 98 97 98 97 98 98 98 99 98

GFSNE_850_rhum_120.txt.gz
RH
88 89 92 96 97 98 99 99 99 98 98 94 100 100 100 100 99 100 100 95 86 83 87 85 82 82 82 76 79 76 75 77 78 82 85 88 81 86
64 58 51 48 52 57 59 58 75 83 94 96 94 87 88 93 94 98 100 96 91 94 92 92 88 91 94 88 76 77 79 84 80 84 85 88 80 90
24 28 35 45 60 70 71 72 62 52 47 48 52 62 70 72 69 79 84 93 98 100 96 94 99 100 97 96 89 83 85 85 93 92 87 84 83 89
11 11 11 12 17 18 19 21 36 68 84 83 77 66 37 28 57 47 46 84 94 98 100 98 91 100 99 100 96 87 94 95 87 88 96 93 91 88
14 17 20 26 27 26 26 24 22 36 44 44 46 47 33 19 16 25 26 37 74 96 99 99 98 96 98 100 100 98 94 90 88 89 100 96 94 96
16 20 22 26 30 34 33 33 38 37 34 34 33 27 26 22 21 19 13 20 31 60 94 100 98 100 100 99 99 100 100 90 96 98 92 94 91 91
27 32 38 45 52 58 58 59 53 52 47 41 36 36 35 27 27 23 21 14 9 19 39 88 93 100 100 100 100 98 98 100 100 100 96 96 95 98
31 39 49 64 71 72 73 72 66 68 55 51 49 50 42 41 41 38 34 25 28 8 11 16 42 80 96 100 100 100 100 98 94 91 91 92 95 100
46 44 46 59 69 71 80 86 84 76 71 76 74 69 70 60 59 51 47 46 44 18 18 17 7 11 50 81 95 99 98 94 93 90 86 92 100 100
57 59 60 60 56 62 82 96 95 86 72 75 79 77 81 61 58 72 66 78 55 38 43 74 19 15 9 18 34 84 93 94 92 88 88 92 100 100
59 66 71 72 68 84 94 100 97 83 73 75 69 82 85 66 53 67 61 72 74 76 31 100 99 97 62 24 12 25 78 98 95 99 96 97 99 100
61 80 88 87 97 97 96 90 88 73 85 75 73 70 80 73 54 60 71 80 91 95 67 75 76 78 87 64 59 80 56 75 98 99 100 100 98 100
92 89 84 83 98 98 100 100 100 93 99 100 93 83 79 75 58 56 64 74 81 80 55 68 70 51 60 81 43 61 92 99 98 100 100 100 100 100
97 92 87 94 96 91 95 95 100 100 97 96 96 80 87 71 62 61 63 72 79 81 58 60 100 95 100 100 98 27 31 77 98 99 100 100 100 100
95 95 98 89 94 94 87 93 99 91 82 82 83 92 89 77 71 66 67 68 70 62 60 58 97 100 100 99 100 97 80 20 56 98 100 100 100 100
86 86 88 98 94 85 78 75 78 80 95 98 95 97 96 88 75 67 68 66 79 49 51 61 74 95 98 98 98 98 99 100 53 90 100 100 100 100
100 97 91 84 70 76 82 85 92 100 100 99 98 97 94 86 84 75 79 85 85 70 48 56 65 76 95 96 99 97 97 99 100 68 94 100 100 100
96 88 71 69 71 84 88 92 81 79 79 80 79 79 82 85 84 85 88 90 86 86 88 70 93 91 85 91 90 86 94 95 91 99 74 100 100 98
74 73 76 76 78 81 81 82 85 88 92 91 91 86 87 87 96 97 86 82 88 90 94 90 100 100 96 100 71 90 94 98 97 95 100 100 100 98
76 82 84 87 88 88 89 92 92 91 90 88 90 95 100 100 97 90 87 88 100 92 88 89 93 86 97 97 95 83 96 95 99 100 100 92 99 100
86 90 89 90 91 92 93 93 93 90 90 94 96 95 94 96 96 96 96 100 100 97 92 85 78 88 100 98 99 95 94 100 95 99 100 99 99 100
91 91 90 91 94 94 95 95 95 93 92 92 91 91 93 97 98 96 96 100 100 96 92 87 82 90 96 98 100 100 100 100 99 84 100 99 98 98
92 94 94 93 93 96 98 98 98 98 96 96 95 95 96 98 98 98 99 98 96 99 93 86 93 95 94 98 99 98 96 100 91 95 91 100 99 98

GFSNE_850_rhum_123.txt.gz
RH
94 82 96 98 99 99 98 98 98 99 99 100 100 100 100 100 99 98 99 98 98 98 93 89 90 90 88 83 82 86 82 73 68 72 75 88 97 94
74 75 82 71 58 53 53 59 65 78 85 89 84 87 91 84 82 80 85 89 89 92 85 85 82 88 92 91 86 89 93 86 77 76 72 78 100 98
17 21 23 26 30 37 48 62 72 72 70 70 68 63 58 58 56 57 58 68 65 70 91 93 100 96 93 95 91 93 95 97 95 83 77 82 97 100
16 20 23 24 23 21 19 17 18 25 38 45 40 32 34 46 60 64 58 39 41 48 61 96 96 96 96 97 95 98 100 100 99 93 85 85 88 92
15 16 19 22 24 28 29 30 34 37 43 47 36 23 18 17 13 14 16 16 13 20 35 47 95 98 96 96 96 99 99 93 100 90 88 85 87 96
23 25 28 30 30 33 34 41 43 42 42 41 38 28 25 21 20 16 9 10 10 8 9 18 37 92 100 100 100 100 99 100 96 99 94 88 94 94
33 36 43 55 61 68 80 65 65 58 52 48 47 44 36 32 31 30 25 19 14 12 14 11 11 22 77 99 99 100 100 100 98 98 100 98 98 100
40 43 47 58 63 66 68 72 78 78 71 66 61 65 58 62 62 55 47 36 29 15 20 12 12 9 9 23 83 99 100 100 100 99 100 100 99 100
53 51 48 51 51 51 57 72 92 93 93 86 75 71 70 74 77 61 50 57 55 32 42 27 17 20 19 16 14 40 97 99 100 100 100 100 98 97
49 45 47 52 61 65 84 70 83 95 97 90 78 74 69 75 95 76 59 64 55 38 42 69 36 44 25 20 32 31 26 83 93 97 100 100 97 92
49 54 64 67 68 86 93 89 90 90 86 81 85 88 79 79 86 87 65 60 63 52 37 100 64 40 23 15 18 32 85 53 64 88 100 100 96 93
49 56 65 70 88 99 98 96 93 86 91 84 82 92 85 80 83 92 74 72 75 88 44 73 56 58 82 23 34 82 75 91 58 70 97 100 100 99
76 77 74 74 96 100 100 95 90 93 98 92 88 90 86 84 76 81 73 72 78 89 54 81 81 59 92 100 35 17 17 15 56 92 100 100 100 98
92 92 82 96 100 99 98 96 99 97 91 86 88 83 80 77 80 82 73 68 67 73 60 59 80 64 72 96 100 36 29 20 21 34 78 100 100 100
98 86 100 100 100 95 82 96 98 82 79 80 77 77 79 88 96 85 72 68 65 58 55 52 60 65 85 100 94 91 76 28 26 21 24 72 100 98
89 91 94 92 81 75 63 64 78 90 93 96 100 88 89 94 94 84 81 71 66 50 48 54 54 66 66 100 100 89 78 84 46 24 27 42 86 99
100 94 84 72 63 62 64 68 72 81 79 85 93 91 89 86 82 78 78 78 81 74 55 57 57 65 75 85 100 91 67 66 58 52 52 30 37 94
98 87 73 73 72 71 71 71 76 76 74 77 79 80 81 80 79 78 83 95 97 89 73 63 71 97 100 76 82 73 78 74 66 77 88 93 52 62
81 74 74 76 78 82 82 82 82 82 84 88 90 90 89 89 88 88 94 95 90 87 94 75 81 96 100 100 72 81 81 80 78 89 99 100 99 81
75 76 78 82 83 84 87 90 91 92 93 92 92 91 91 96 98 100 97 94 97 100 99 92 92 90 95 98 95 73 81 82 95 90 99 96 99 100
78 81 85 86 86 89 91 94 96 95 96 96 96 97 96 99 97 95 95 98 100 100 99 99 83 85 100 97 95 72 72 82 91 100 97 98 99 97
86 88 88 91 94 97 97 98 97 95 95 95 93 94 95 98 97 97 98 98 96 96 95 90 86 86 89 100 99 93 82 83 98 100 100 100 100 98
89 92 94 95 98 99 99 98 97 96 97 96 96 96 96 96 96 97 97 97 97 97 95 93 90 92 94 96 99 98 96 93 95 100 89 92 91 93